Location: Biltmore Gardens
(41.6070°N, 83.4666°W)
Time: 13:11:41
(UTC+00:00)

Cosmos 1378 Rocket - Pass Details

Date: 14 July 2020
Orbit: 602 x 626 km, 82.5° (Epoch: 04 August)

Event Time Altitude Azimuth Distance (km) Brightness Sun altitude
Rises 08:46:06 0° 346° (NNW) 2,899 7.5 -13.5°
Reaches altitude 10° 08:48:22 10° 342° (NNW) 1,993 6.5 -13.2°
Maximum altitude 08:52:39 52° 267° (W) 779 3.8 -12.7°
Enters shadow 08:56:31 12° 192° (SSW) 1,828 5.5 -12.1°
